owner,sensor,date,latitude,longitude,vertical_datum,direction_of_sea_water_velocity,sea_water_speed,upward_sea_water_velocity,qcFlag 
TABS,ioos:station:wmo:42051:1,2005-06-01T00:00:00Z,29.6350,-93.6417,2.0,45.03275232,12.40972602,-99999.0,'11111222,11111222,99999999' 
TABS,ioos:station:wmo:42051:1,2005-06-01T00:30:00Z,29.6350,-93.6417,2.0,40.55975071,13.42582958,-99999.0,'11111222,11111222,99999999' 
TABS,ioos:station:wmo:42051:1,2005-06-01T01:00:00Z,29.6350,-93.6417,2.0,23.01704348,15.31959856,-99999.0,'11111222,11111222,99999999' 
TABS,ioos:station:wmo:42051:1,2005-06-01T01:30:00Z,29.6350,-93.6417,2.0,30.79369127,15.58757518,-99999.0,'11111222,11111222,99999999' 
TABS,ioos:station:wmo:42051:1,2005-06-01T02:00:00Z,29.6350,-93.6417,2.0,41.34895228,16.21150826,-99999.0,'11111222,11111222,99999999' 
TABS,ioos:station:wmo:42051:1,2005-06-01T02:30:00Z,29.6350,-93.6417,2.0,46.582898,20.22389923,-99999.0,'11111222,11111222,99999999' 
TABS,ioos:station:wmo:42051:1,2005-06-01T03:00:00Z,29.6350,-93.6417,2.0,44.20203262,16.75298481,-99999.0,'11111222,11111222,99999999' 
TABS,ioos:station:wmo:42051:1,2005-06-01T03:30:00Z,29.6350,-93.6417,2.0,58.87963793,18.18749296,-99999.0,'11111222,11111222,99999999' 
TABS,ioos:station:wmo:42051:1,2005-06-01T04:00:00Z,29.6350,-93.6417,2.0,68.05774583,17.36813749,-99999.0,'11111222,11111222,99999999' 
TABS,ioos:station:wmo:42051:1,2005-06-01T04:30:00Z,29.6350,-93.6417,2.0,77.82723173,16.40893659,-99999.0,'11111222,11111222,99999999' 
TABS,ioos:station:wmo:42051:1,2005-06-01T05:00:00Z,29.6350,-93.6417,2.0,91.74382527,17.08791386,-99999.0,'11111222,11111222,99999999' 
TABS,ioos:station:wmo:42051:1,2005-06-01T05:30:00Z,29.6350,-93.6417,2.0,97.47650231,13.14172744,-99999.0,'11111222,11111222,99999999' 
TABS,ioos:station:wmo:42051:1,2005-06-01T06:00:00Z,29.6350,-93.6417,2.0,100.4421249,12.69016942,-99999.0,'11111222,11111222,99999999' 
TABS,ioos:station:wmo:42051:1,2005-06-01T06:30:00Z,29.6350,-93.6417,2.0,97.27324826,13.90185959,-99999.0,'11111222,11111222,99999999' 
TABS,ioos:station:wmo:42051:1,2005-06-01T07:00:00Z,29.6350,-93.6417,2.0,84.72611638,14.36079385,-99999.0,'11111222,11111222,99999999' 
TABS,ioos:station:wmo:42051:1,2005-06-01T07:30:00Z,29.6350,-93.6417,2.0,101.0798639,15.14224884,-99999.0,'11111222,11111222,99999999' 
TABS,ioos:station:wmo:42051:1,2005-06-01T08:00:00Z,29.6350,-93.6417,2.0,106.3741823,12.66362507,-99999.0,'11111222,11111222,99999999' 
TABS,ioos:station:wmo:42051:1,2005-06-01T08:30:00Z,29.6350,-93.6417,2.0,115.9052244,12.0397882,-99999.0,'11111222,11111222,99999999' 
TABS,ioos:station:wmo:42051:1,2005-06-01T09:00:00Z,29.6350,-93.6417,2.0,113.4188627,14.34139463,-99999.0,'11111222,11111222,99999999' 
TABS,ioos:station:wmo:42051:1,2005-06-01T09:30:00Z,29.6350,-93.6417,2.0,120.4514963,12.47016038,-99999.0,'11111222,11111222,99999999' 
TABS,ioos:station:wmo:42051:1,2005-06-01T10:00:00Z,29.6350,-93.6417,2.0,97.69917252,9.778149109,-99999.0,'11133222,11111222,99999999' 
TABS,ioos:station:wmo:42051:1,2005-06-01T10:30:00Z,29.6350,-93.6417,2.0,86.3615346,11.50318652,-99999.0,'11111222,11111222,99999999' 
TABS,ioos:station:wmo:42051:1,2005-06-01T11:00:00Z,29.6350,-93.6417,2.0,90.54255618,10.56047347,-99999.0,'11111222,11111222,99999999' 
TABS,ioos:station:wmo:42051:1,2005-06-01T11:30:00Z,29.6350,-93.6417,2.0,76.98716851,7.0613384,-99999.0,'11133222,11111222,99999999' 
TABS,ioos:station:wmo:42051:1,2005-06-01T12:00:00Z,29.6350,-93.6417,2.0,71.9991439,8.348652586,-99999.0,'11133222,11111222,99999999' 
TABS,ioos:station:wmo:42051:1,2005-06-01T12:30:00Z,29.6350,-93.6417,2.0,57.99469163,7.547184906,-99999.0,'11133222,11111222,99999999' 
TABS,ioos:station:wmo:42051:1,2005-06-01T13:00:00Z,29.6350,-93.6417,2.0,42.43044842,6.150943017,-99999.0,'11133222,11111222,99999999' 
TABS,ioos:station:wmo:42051:1,2005-06-01T13:30:00Z,29.6350,-93.6417,2.0,44.053156,6.845728595,-99999.0,'11133222,11111222,99999999' 
TABS,ioos:station:wmo:42051:1,2005-06-01T14:00:00Z,29.6350,-93.6417,2.0,76.87824714,3.039358485,-99999.0,'11133222,11111222,99999999' 
TABS,ioos:station:wmo:42051:1,2005-06-01T14:30:00Z,29.6350,-93.6417,2.0,215.9094286,0.358050276,-99999.0,'11133222,11111222,99999999' 
TABS,ioos:station:wmo:42051:1,2005-06-01T15:00:00Z,29.6350,-93.6417,2.0,307.5689251,3.936292672,-99999.0,'11133222,11111222,99999999' 
TABS,ioos:station:wmo:42051:1,2005-06-01T15:30:00Z,29.6350,-93.6417,2.0,315.0003157,3.422396821,-99999.0,'11133222,11111222,99999999' 
TABS,ioos:station:wmo:42051:1,2005-06-01T16:00:00Z,29.6350,-93.6417,2.0,351.8496131,3.949898733,-99999.0,'11133222,11111222,99999999' 
TABS,ioos:station:wmo:42051:1,2005-06-01T16:30:00Z,29.6350,-93.6417,2.0,341.2441956,3.949746827,-99999.0,'11133222,11111222,99999999' 
TABS,ioos:station:wmo:42051:1,2005-06-01T17:00:00Z,29.6350,-93.6417,2.0,300.0932783,4.287959888,-99999.0,'11133222,11111222,99999999' 
TABS,ioos:station:wmo:42051:1,2005-06-01T17:30:00Z,29.6350,-93.6417,2.0,3.160124997,7.982136306,-99999.0,'11133222,11111222,99999999' 
TABS,ioos:station:wmo:42051:1,2005-06-01T18:00:00Z,29.6350,-93.6417,2.0,118.0872513,4.54529427,-99999.0,'11133222,11111222,99999999' 
TABS,ioos:station:wmo:42051:1,2005-06-01T18:30:00Z,29.6350,-93.6417,2.0,7.845409932,4.835255939,-99999.0,'11133222,11111222,99999999' 
TABS,ioos:station:wmo:42051:1,2005-06-01T19:00:00Z,29.6350,-93.6417,2.0,17.00193805,8.344698916,-99999.0,'11133222,11111222,99999999' 
TABS,ioos:station:wmo:42051:1,2005-06-01T19:30:00Z,29.6350,-93.6417,2.0,61.85846457,3.413531895,-99999.0,'11133222,11111222,99999999' 
TABS,ioos:station:wmo:42051:1,2005-06-01T20:00:00Z,29.6350,-93.6417,2.0,64.52105423,4.718951155,-99999.0,'11133222,11111222,99999999' 
TABS,ioos:station:wmo:42051:1,2005-06-01T20:30:00Z,29.6350,-93.6417,2.0,39.1688524,10.02206566,-99999.0,'11111222,11111222,99999999' 
TABS,ioos:station:wmo:42051:1,2005-06-01T21:00:00Z,29.6350,-93.6417,2.0,62.70583301,12.2993699,-99999.0,'11111222,11111222,99999999' 
TABS,ioos:station:wmo:42051:1,2005-06-01T21:30:00Z,29.6350,-93.6417,2.0,153.594176,3.215478191,-99999.0,'11133222,11111222,99999999' 
TABS,ioos:station:wmo:42051:1,2005-06-01T22:00:00Z,29.6350,-93.6417,2.0,86.66057983,9.95690715,-99999.0,'11133222,11111222,99999999' 
TABS,ioos:station:wmo:42051:1,2005-06-01T22:30:00Z,29.6350,-93.6417,2.0,125.9570644,5.398685025,-99999.0,'11133222,11111222,99999999' 
TABS,ioos:station:wmo:42051:1,2005-06-01T23:00:00Z,29.6350,-93.6417,2.0,199.1692146,2.466779277,-99999.0,'11133222,11111222,99999999' 
TABS,ioos:station:wmo:42051:1,2005-06-01T23:30:00Z,29.6350,-93.6417,2.0,226.8899436,4.287400145,-99999.0,'11133222,11111222,99999999' 
TABS,ioos:station:wmo:42051:1,2005-06-02T00:00:00Z,29.6350,-93.6417,2.0,349.5177966,4.617055339,-99999.0,'11133222,11111222,99999999' 
TABS,ioos:station:wmo:42051:1,2005-06-02T00:30:00Z,29.6350,-93.6417,2.0,43.72341864,9.838297617,-99999.0,'11133222,11111222,99999999' 
TABS,ioos:station:wmo:42051:1,2005-06-02T01:00:00Z,29.6350,-93.6417,2.0,57.78060334,11.34735652,-99999.0,'11111222,11111222,99999999' 
TABS,ioos:station:wmo:42051:1,2005-06-02T01:30:00Z,29.6350,-93.6417,2.0,63.18302512,16.26978795,-99999.0,'11111222,11111222,99999999' 
TABS,ioos:station:wmo:42051:1,2005-06-02T02:00:00Z,29.6350,-93.6417,2.0,68.69822372,16.18582096,-99999.0,'11111222,11111222,99999999' 
TABS,ioos:station:wmo:42051:1,2005-06-02T02:30:00Z,29.6350,-93.6417,2.0,82.90145259,13.43296319,-99999.0,'11111222,11111222,99999999' 
TABS,ioos:station:wmo:42051:1,2005-06-02T03:00:00Z,29.6350,-93.6417,2.0,104.7337693,5.976520727,-99999.0,'11133222,11111222,99999999' 
TABS,ioos:station:wmo:42051:1,2005-06-02T03:30:00Z,29.6350,-93.6417,2.0,56.15473888,1.02342562,-99999.0,'11133222,11111222,99999999' 
TABS,ioos:station:wmo:42051:1,2005-06-02T04:00:00Z,29.6350,-93.6417,2.0,215.5958293,3.418844834,-99999.0,'11133222,11111222,99999999' 
TABS,ioos:station:wmo:42051:1,2005-06-02T04:30:00Z,29.6350,-93.6417,2.0,338.029464,2.512468905,-99999.0,'11133222,11111222,99999999' 
TABS,ioos:station:wmo:42051:1,2005-06-02T05:00:00Z,29.6350,-93.6417,2.0,292.4693891,1.753082999,-99999.0,'11133222,11111222,99999999' 
TABS,ioos:station:wmo:42051:1,2005-06-02T05:30:00Z,29.6350,-93.6417,2.0,226.0206867,3.571456286,-99999.0,'11133222,11111222,99999999' 
TABS,ioos:station:wmo:42051:1,2005-06-02T06:00:00Z,29.6350,-93.6417,2.0,237.5109785,2.513344385,-99999.0,'11133222,11111222,99999999' 
TABS,ioos:station:wmo:42051:1,2005-06-02T06:30:00Z,29.6350,-93.6417,2.0,344.6293008,2.60311352,-99999.0,'11133222,11111222,99999999' 
TABS,ioos:station:wmo:42051:1,2005-06-02T07:00:00Z,29.6350,-93.6417,2.0,197.3171103,3.729034728,-99999.0,'11133222,11111222,99999999' 
TABS,ioos:station:wmo:42051:1,2005-06-02T07:30:00Z,29.6350,-93.6417,2.0,128.487487,4.675863557,-99999.0,'11133222,11111222,99999999' 
TABS,ioos:station:wmo:42051:1,2005-06-02T08:00:00Z,29.6350,-93.6417,2.0,89.41791623,6.890355579,-99999.0,'11133222,11111222,99999999' 
TABS,ioos:station:wmo:42051:1,2005-06-02T08:30:00Z,29.6350,-93.6417,2.0,124.0434792,10.78912415,-99999.0,'11111222,11111222,99999999' 
TABS,ioos:station:wmo:42051:1,2005-06-02T09:00:00Z,29.6350,-93.6417,2.0,146.3098008,8.761489599,-99999.0,'11133222,11111222,99999999' 
TABS,ioos:station:wmo:42051:1,2005-06-02T09:30:00Z,29.6350,-93.6417,2.0,143.7173314,2.146112765,-99999.0,'11133222,11111222,99999999' 
TABS,ioos:station:wmo:42051:1,2005-06-02T10:00:00Z,29.6350,-93.6417,2.0,225.1677063,2.411244492,-99999.0,'11133222,11111222,99999999' 
TABS,ioos:station:wmo:42051:1,2005-06-02T10:30:00Z,29.6350,-93.6417,2.0,280.7846936,2.779082582,-99999.0,'11133222,11111222,99999999' 
TABS,ioos:station:wmo:42051:1,2005-06-02T11:00:00Z,29.6350,-93.6417,2.0,9.764745505,4.363209828,-99999.0,'11133222,11111222,99999999' 
TABS,ioos:station:wmo:42051:1,2005-06-02T11:30:00Z,29.6350,-93.6417,2.0,83.82983933,5.58233822,-99999.0,'11133222,11111222,99999999' 
TABS,ioos:station:wmo:42051:1,2005-06-02T12:00:00Z,29.6350,-93.6417,2.0,92.96092921,7.55007947,-99999.0,'11133222,11111222,99999999' 
TABS,ioos:station:wmo:42051:1,2005-06-02T12:30:00Z,29.6350,-93.6417,2.0,110.4653191,5.176736424,-99999.0,'11133222,11111222,99999999' 
TABS,ioos:station:wmo:42051:1,2005-06-02T13:00:00Z,29.6350,-93.6417,2.0,78.0408159,5.01893415,-99999.0,'11133222,11111222,99999999' 
TABS,ioos:station:wmo:42051:1,2005-06-02T13:30:00Z,29.6350,-93.6417,2.0,60.07284771,7.015440114,-99999.0,'11133222,11111222,99999999' 
TABS,ioos:station:wmo:42051:1,2005-06-02T14:00:00Z,29.6350,-93.6417,2.0,76.10059818,5.078710466,-99999.0,'11133222,11111222,99999999' 
TABS,ioos:station:wmo:42051:1,2005-06-02T14:30:00Z,29.6350,-93.6417,2.0,104.3492985,3.550774563,-99999.0,'11133222,11111222,99999999' 
TABS,ioos:station:wmo:42051:1,2005-06-02T15:00:00Z,29.6350,-93.6417,2.0,150.0331177,3.843865242,-99999.0,'11133222,11111222,99999999' 
TABS,ioos:station:wmo:42051:1,2005-06-02T15:30:00Z,29.6350,-93.6417,2.0,253.9088004,1.08240473,-99999.0,'11133222,11111222,99999999' 
TABS,ioos:station:wmo:42051:1,2005-06-02T16:00:00Z,29.6350,-93.6417,2.0,321.2037491,0.654369926,-99999.0,'11133222,11111222,99999999' 
TABS,ioos:station:wmo:42051:1,2005-06-02T16:30:00Z,29.6350,-93.6417,2.0,36.82392725,2.486000805,-99999.0,'11133222,11111222,99999999' 
TABS,ioos:station:wmo:42051:1,2005-06-02T17:00:00Z,29.6350,-93.6417,2.0,60.67590974,5.574271253,-99999.0,'11133222,11111222,99999999' 
TABS,ioos:station:wmo:42051:1,2005-06-02T17:30:00Z,29.6350,-93.6417,2.0,114.075442,5.14781507,-99999.0,'11133222,11111222,99999999' 
TABS,ioos:station:wmo:42051:1,2005-06-02T18:00:00Z,29.6350,-93.6417,2.0,138.0895592,4.985278327,-99999.0,'11133222,11111222,99999999' 
TABS,ioos:station:wmo:42051:1,2005-06-02T18:30:00Z,29.6350,-93.6417,2.0,179.4801154,4.410181402,-99999.0,'11133222,11111222,99999999' 
TABS,ioos:station:wmo:42051:1,2005-06-02T19:00:00Z,29.6350,-93.6417,2.0,282.5793267,1.239758041,-99999.0,'11133222,11111222,99999999' 
TABS,ioos:station:wmo:42051:1,2005-06-02T19:30:00Z,29.6350,-93.6417,2.0,94.06151318,3.388509997,-99999.0,'11133222,11111222,99999999' 
TABS,ioos:station:wmo:42051:1,2005-06-02T20:00:00Z,29.6350,-93.6417,2.0,140.0647031,8.490147231,-99999.0,'11133222,11111222,99999999' 
TABS,ioos:station:wmo:42051:1,2005-06-02T20:30:00Z,29.6350,-93.6417,2.0,147.1411469,6.690388628,-99999.0,'11133222,11111222,99999999' 
TABS,ioos:station:wmo:42051:1,2005-06-02T21:00:00Z,29.6350,-93.6417,2.0,149.9133553,5.824774674,-99999.0,'11133222,11111222,99999999' 
TABS,ioos:station:wmo:42051:1,2005-06-02T21:30:00Z,29.6350,-93.6417,2.0,116.3471359,5.880901291,-99999.0,'11133222,11111222,99999999' 
TABS,ioos:station:wmo:42051:1,2005-06-02T22:00:00Z,29.6350,-93.6417,2.0,69.98274406,8.588859063,-99999.0,'11133222,11111222,99999999' 
TABS,ioos:station:wmo:42051:1,2005-06-02T22:30:00Z,29.6350,-93.6417,2.0,83.24003267,9.34496656,-99999.0,'11133222,11111222,99999999' 
TABS,ioos:station:wmo:42051:1,2005-06-02T23:00:00Z,29.6350,-93.6417,2.0,94.87926237,9.052806195,-99999.0,'11133222,11111222,99999999' 
TABS,ioos:station:wmo:42051:1,2005-06-02T23:30:00Z,29.6350,-93.6417,2.0,71.93002977,7.447314952,-99999.0,'11133222,11111222,99999999' 
TABS,ioos:station:wmo:42051:1,2005-06-03T00:00:00Z,29.6350,-93.6417,2.0,70.11488139,8.99639928,-99999.0,'11133222,11111222,99999999' 
TABS,ioos:station:wmo:42051:1,2005-06-03T00:30:00Z,29.6350,-93.6417,2.0,73.21816627,11.29086799,-99999.0,'11111222,11111222,99999999' 
TABS,ioos:station:wmo:42051:1,2005-06-03T01:00:00Z,29.6350,-93.6417,2.0,48.06980187,11.22374715,-99999.0,'11111222,11111222,99999999' 
TABS,ioos:station:wmo:42051:1,2005-06-03T01:30:00Z,29.6350,-93.6417,2.0,45.67348044,14.44011773,-99999.0,'11111222,11111222,99999999' 
TABS,ioos:station:wmo:42051:1,2005-06-03T02:00:00Z,29.6350,-93.6417,2.0,52.03706319,15.41080465,-99999.0,'11111222,11111222,99999999' 
TABS,ioos:station:wmo:42051:1,2005-06-03T02:30:00Z,29.6350,-93.6417,2.0,55.48055624,13.41128256,-99999.0,'11111222,11111222,99999999' 
TABS,ioos:station:wmo:42051:1,2005-06-03T03:00:00Z,29.6350,-93.6417,2.0,48.64295004,11.01777201,-99999.0,'11111222,11111222,99999999' 
TABS,ioos:station:wmo:42051:1,2005-06-03T03:30:00Z,29.6350,-93.6417,2.0,43.23189274,12.8330277,-99999.0,'11111222,11111222,99999999' 
TABS,ioos:station:wmo:42051:1,2005-06-03T04:00:00Z,29.6350,-93.6417,2.0,53.72594783,13.65673826,-99999.0,'11111222,11111222,99999999' 
TABS,ioos:station:wmo:42051:1,2005-06-03T04:30:00Z,29.6350,-93.6417,2.0,54.37217602,11.81077474,-99999.0,'11111222,11111222,99999999' 
TABS,ioos:station:wmo:42051:1,2005-06-03T05:00:00Z,29.6350,-93.6417,2.0,51.45834971,13.64180707,-99999.0,'11111222,11111222,99999999' 
TABS,ioos:station:wmo:42051:1,2005-06-03T05:30:00Z,29.6350,-93.6417,2.0,55.92382665,14.81360523,-99999.0,'11111222,11111222,99999999' 
TABS,ioos:station:wmo:42051:1,2005-06-03T06:00:00Z,29.6350,-93.6417,2.0,58.63739133,15.02535524,-99999.0,'11111222,11111222,99999999' 
TABS,ioos:station:wmo:42051:1,2005-06-03T06:30:00Z,29.6350,-93.6417,2.0,69.34595692,10.94336329,-99999.0,'11111222,11111222,99999999' 
TABS,ioos:station:wmo:42051:1,2005-06-03T07:00:00Z,29.6350,-93.6417,2.0,62.73059178,5.456418239,-99999.0,'11133222,11111222,99999999' 
TABS,ioos:station:wmo:42051:1,2005-06-03T07:30:00Z,29.6350,-93.6417,2.0,73.57866455,7.110028129,-99999.0,'11133222,11111222,99999999' 
TABS,ioos:station:wmo:42051:1,2005-06-03T08:00:00Z,29.6350,-93.6417,2.0,69.07093846,10.24599922,-99999.0,'11111222,11111222,99999999' 
TABS,ioos:station:wmo:42051:1,2005-06-03T08:30:00Z,29.6350,-93.6417,2.0,83.99383514,10.60823265,-99999.0,'11111222,11111222,99999999' 
TABS,ioos:station:wmo:42051:1,2005-06-03T09:00:00Z,29.6350,-93.6417,2.0,94.12758205,9.725224933,-99999.0,'11133222,11111222,99999999' 
TABS,ioos:station:wmo:42051:1,2005-06-03T09:30:00Z,29.6350,-93.6417,2.0,75.45899497,9.359813032,-99999.0,'11133222,11111222,99999999' 
TABS,ioos:station:wmo:42051:1,2005-06-03T10:00:00Z,29.6350,-93.6417,2.0,76.78928486,12.12076318,-99999.0,'11111222,11111222,99999999' 
TABS,ioos:station:wmo:42051:1,2005-06-03T10:30:00Z,29.6350,-93.6417,2.0,84.47984641,14.96942217,-99999.0,'11111222,11111222,99999999' 
TABS,ioos:station:wmo:42051:1,2005-06-03T11:00:00Z,29.6350,-93.6417,2.0,75.85667479,12.97325325,-99999.0,'11111222,11111222,99999999' 
TABS,ioos:station:wmo:42051:1,2005-06-03T11:30:00Z,29.6350,-93.6417,2.0,87.07076006,13.69789765,-99999.0,'11111222,11111222,99999999' 
TABS,ioos:station:wmo:42051:1,2005-06-03T12:00:00Z,29.6350,-93.6417,2.0,87.9477841,12.0077017,-99999.0,'11111222,11111222,99999999' 
TABS,ioos:station:wmo:42051:1,2005-06-03T12:30:00Z,29.6350,-93.6417,2.0,76.62028482,12.48897914,-99999.0,'11111222,11111222,99999999' 
TABS,ioos:station:wmo:42051:1,2005-06-03T13:00:00Z,29.6350,-93.6417,2.0,75.41572411,13.18483978,-99999.0,'11111222,11111222,99999999' 
TABS,ioos:station:wmo:42051:1,2005-06-03T13:30:00Z,29.6350,-93.6417,2.0,78.39312873,11.7298636,-99999.0,'11111222,11111222,99999999' 
TABS,ioos:station:wmo:42051:1,2005-06-03T14:00:00Z,29.6350,-93.6417,2.0,74.11060781,11.24983555,-99999.0,'11111222,11111222,99999999' 
TABS,ioos:station:wmo:42051:1,2005-06-03T14:30:00Z,29.6350,-93.6417,2.0,64.75048074,8.181692979,-99999.0,'11133222,11111222,99999999' 
TABS,ioos:station:wmo:42051:1,2005-06-03T15:00:00Z,29.6350,-93.6417,2.0,61.4777923,12.96334062,-99999.0,'11111222,11111222,99999999' 
TABS,ioos:station:wmo:42051:1,2005-06-03T15:30:00Z,29.6350,-93.6417,2.0,66.14614996,11.25107106,-99999.0,'11111222,11111222,99999999' 
TABS,ioos:station:wmo:42051:1,2005-06-03T16:00:00Z,29.6350,-93.6417,2.0,72.6707611,9.668883079,-99999.0,'11133222,11111222,99999999' 
TABS,ioos:station:wmo:42051:1,2005-06-03T16:30:00Z,29.6350,-93.6417,2.0,78.53848208,8.15257628,-99999.0,'11133222,11111222,99999999' 
TABS,ioos:station:wmo:42051:1,2005-06-03T17:00:00Z,29.6350,-93.6417,2.0,69.33262315,7.224963668,-99999.0,'11133222,11111222,99999999' 
TABS,ioos:station:wmo:42051:1,2005-06-03T17:30:00Z,29.6350,-93.6417,2.0,106.4599763,7.340844638,-99999.0,'11133222,11111222,99999999' 
TABS,ioos:station:wmo:42051:1,2005-06-03T18:00:00Z,29.6350,-93.6417,2.0,39.37771775,5.485252957,-99999.0,'11133222,11111222,99999999' 
TABS,ioos:station:wmo:42051:1,2005-06-03T18:30:00Z,29.6350,-93.6417,2.0,64.08361319,5.925959838,-99999.0,'11133222,11111222,99999999' 
TABS,ioos:station:wmo:42051:1,2005-06-03T19:00:00Z,29.6350,-93.6417,2.0,50.08907588,7.652777274,-99999.0,'11133222,11111222,99999999' 
TABS,ioos:station:wmo:42051:1,2005-06-03T19:30:00Z,29.6350,-93.6417,2.0,65.55610238,12.44553735,-99999.0,'11111222,11111222,99999999' 
TABS,ioos:station:wmo:42051:1,2005-06-03T20:00:00Z,29.6350,-93.6417,2.0,81.9901732,12.12832223,-99999.0,'11111222,11111222,99999999' 
TABS,ioos:station:wmo:42051:1,2005-06-03T20:30:00Z,29.6350,-93.6417,2.0,82.84990641,11.3280934,-99999.0,'11111222,11111222,99999999' 
TABS,ioos:station:wmo:42051:1,2005-06-03T21:00:00Z,29.6350,-93.6417,2.0,80.08887031,10.28347218,-99999.0,'11111222,11111222,99999999' 
TABS,ioos:station:wmo:42051:1,2005-06-03T21:30:00Z,29.6350,-93.6417,2.0,84.92040402,8.583711319,-99999.0,'11133222,11111222,99999999' 
TABS,ioos:station:wmo:42051:1,2005-06-03T22:00:00Z,29.6350,-93.6417,2.0,84.53676767,8.29769245,-99999.0,'11133222,11111222,99999999' 
TABS,ioos:station:wmo:42051:1,2005-06-03T22:30:00Z,29.6350,-93.6417,2.0,103.101561,8.028997447,-99999.0,'11133222,11111222,99999999' 
TABS,ioos:station:wmo:42051:1,2005-06-03T23:00:00Z,29.6350,-93.6417,2.0,120.4232714,9.63693416,-99999.0,'11133222,11111222,99999999' 
TABS,ioos:station:wmo:42051:1,2005-06-03T23:30:00Z,29.6350,-93.6417,2.0,106.5043228,4.787243466,-99999.0,'11133222,11111222,99999999' 
TABS,ioos:station:wmo:42051:1,2005-06-04T00:00:00Z,29.6350,-93.6417,2.0,86.65225905,3.596136816,-99999.0,'11133222,11111222,99999999' 
TABS,ioos:station:wmo:42051:1,2005-06-04T00:30:00Z,29.6350,-93.6417,2.0,63.90656939,5.433829221,-99999.0,'11133222,11111222,99999999' 
TABS,ioos:station:wmo:42051:1,2005-06-04T01:00:00Z,29.6350,-93.6417,2.0,67.18780748,7.789274677,-99999.0,'11133222,11111222,99999999' 
TABS,ioos:station:wmo:42051:1,2005-06-04T01:30:00Z,29.6350,-93.6417,2.0,76.76652999,9.348240476,-99999.0,'11133222,11111222,99999999' 
TABS,ioos:station:wmo:42051:1,2005-06-04T02:00:00Z,29.6350,-93.6417,2.0,70.1228157,11.55862449,-99999.0,'11111222,11111222,99999999' 
TABS,ioos:station:wmo:42051:1,2005-06-04T02:30:00Z,29.6350,-93.6417,2.0,85.12699952,10.0061681,-99999.0,'11111222,11111222,99999999' 
TABS,ioos:station:wmo:42051:1,2005-06-04T03:00:00Z,29.6350,-93.6417,2.0,117.8033299,4.759464256,-99999.0,'11133222,11111222,99999999' 
TABS,ioos:station:wmo:42051:1,2005-06-04T03:30:00Z,29.6350,-93.6417,2.0,114.6235072,1.84805303,-99999.0,'11133222,11111222,99999999' 
TABS,ioos:station:wmo:42051:1,2005-06-04T04:00:00Z,29.6350,-93.6417,2.0,267.3402173,3.66394596,-99999.0,'11133222,11111222,99999999' 
TABS,ioos:station:wmo:42051:1,2005-06-04T04:30:00Z,29.6350,-93.6417,2.0,330.9217393,11.6253215,-99999.0,'11111222,11111222,99999999' 
TABS,ioos:station:wmo:42051:1,2005-06-04T05:00:00Z,29.6350,-93.6417,2.0,358.9110708,10.52190097,-99999.0,'11111222,11111222,99999999' 
TABS,ioos:station:wmo:42051:1,2005-06-04T05:30:00Z,29.6350,-93.6417,2.0,30.3113528,10.54098667,-99999.0,'11111222,11111222,99999999' 
TABS,ioos:station:wmo:42051:1,2005-06-04T06:00:00Z,29.6350,-93.6417,2.0,53.42933388,6.512088759,-99999.0,'11133222,11111222,99999999' 
TABS,ioos:station:wmo:42051:1,2005-06-04T06:30:00Z,29.6350,-93.6417,2.0,3.775667454,3.948569361,-99999.0,'11133222,11111222,99999999' 
TABS,ioos:station:wmo:42051:1,2005-06-04T07:00:00Z,29.6350,-93.6417,2.0,323.3059725,1.958009193,-99999.0,'11133222,11111222,99999999' 
TABS,ioos:station:wmo:42051:1,2005-06-04T07:30:00Z,29.6350,-93.6417,2.0,352.0338954,3.463423162,-99999.0,'11133222,11111222,99999999' 
TABS,ioos:station:wmo:42051:1,2005-06-04T08:00:00Z,29.6350,-93.6417,2.0,63.56177101,2.021410399,-99999.0,'11133222,11111222,99999999' 
TABS,ioos:station:wmo:42051:1,2005-06-04T08:30:00Z,29.6350,-93.6417,2.0,76.1886975,2.47145706,-99999.0,'11133222,11111222,99999999' 
TABS,ioos:station:wmo:42051:1,2005-06-04T09:00:00Z,29.6350,-93.6417,2.0,66.85725305,2.697035409,-99999.0,'11133222,11111222,99999999' 
TABS,ioos:station:wmo:42051:1,2005-06-04T09:30:00Z,29.6350,-93.6417,2.0,96.46225553,3.109758833,-99999.0,'11133222,11111222,99999999' 
TABS,ioos:station:wmo:42051:1,2005-06-04T10:00:00Z,29.6350,-93.6417,2.0,150.1155726,2.54892134,-99999.0,'11133222,11111222,99999999' 
TABS,ioos:station:wmo:42051:1,2005-06-04T10:30:00Z,29.6350,-93.6417,2.0,221.9222361,1.317118066,-99999.0,'11133222,11111222,99999999' 
TABS,ioos:station:wmo:42051:1,2005-06-04T11:00:00Z,29.6350,-93.6417,2.0,123.9173512,3.494638751,-99999.0,'11133222,11111222,99999999' 
TABS,ioos:station:wmo:42051:1,2005-06-04T11:30:00Z,29.6350,-93.6417,2.0,106.6765453,4.843727903,-99999.0,'11133222,11111222,99999999' 
TABS,ioos:station:wmo:42051:1,2005-06-04T12:00:00Z,29.6350,-93.6417,2.0,103.9418969,5.893623673,-99999.0,'11133222,11111222,99999999' 
TABS,ioos:station:wmo:42051:1,2005-06-04T12:30:00Z,29.6350,-93.6417,2.0,90.84062071,8.860953673,-99999.0,'11133222,11111222,99999999' 
TABS,ioos:station:wmo:42051:1,2005-06-04T13:00:00Z,29.6350,-93.6417,2.0,91.51852744,6.792385443,-99999.0,'11133222,11111222,99999999' 
TABS,ioos:station:wmo:42051:1,2005-06-04T13:30:00Z,29.6350,-93.6417,2.0,71.99357937,5.919949324,-99999.0,'11133222,11111222,99999999' 
TABS,ioos:station:wmo:42051:1,2005-06-04T14:00:00Z,29.6350,-93.6417,2.0,69.24071675,4.288414625,-99999.0,'11133222,11111222,99999999' 
TABS,ioos:station:wmo:42051:1,2005-06-04T14:30:00Z,29.6350,-93.6417,2.0,45.99768978,5.686000352,-99999.0,'11133222,11111222,99999999' 
TABS,ioos:station:wmo:42051:1,2005-06-04T15:00:00Z,29.6350,-93.6417,2.0,31.75563935,5.833223808,-99999.0,'11133222,11111222,99999999' 
TABS,ioos:station:wmo:42051:1,2005-06-04T15:30:00Z,29.6350,-93.6417,2.0,64.4060306,6.597347952,-99999.0,'11133222,11111222,99999999' 
TABS,ioos:station:wmo:42051:1,2005-06-04T16:00:00Z,29.6350,-93.6417,2.0,68.74954419,6.759622771,-99999.0,'11133222,11111222,99999999' 